Retour au catalogue

STARLINK-6160

ActifCommunicationsVLEO
NORAD 56382·PAYLOAD·🇺🇸 United States

Lancé May 4, 2023 depuis Cape Canaveral Space Force Station

Loading…

Prochains Passages (prochaines 24 heures)

TLE

FraisSource: CelesTrak SupGP

Époque: Sep 15, 2026, 01:37 UTC

1 56382C 23061J   26258.06784722 -.00017960  00000+0 -65108-3 0  2580
2 56382  42.9994 208.6254 0000934 258.9060 323.8610 15.27558862    19

Suivez STARLINK-6160 en temps réel avec AllMySat

Download on the App Store